Home   Weather   Roskilde   Past weeks

Flag for Denmark Past Weather in Roskilde, Denmark — Yesterday and Last 2 Weeks

Now
39 °F

Partly cloudy.


Feels Like: 32 °F
Forecast: 33 / 46 °F
Wind: 10 mph from Southwest

Location: Koebenhavn / Roskilde

Current Time: Apr 24, 2017 at 5:43:21 am

Latest Report: Apr 24, 2017 at 5:20 am


Visibility: N/A

Pressure: 29.86 "Hg

Humidity: 93%

Dew Point: 37 °F

Location of RoskildeLocation

Past Weather in Roskilde — Graph

°F

Roskilde Temperature Yesterday

Maximum temperature yesterday: 48 °F (at 3:20 pm)
Minimum temperature yesterday: 36 °F (at 1:50 am)
Average temperature yesterday: 42 °F

High & Low Weather Summary for the Past Weeks

 TemperatureHumidityPressure
High59 °F (Apr 9, 2:50 pm)100% (Apr 9, 7:20 am)30.60 "Hg (Apr 9, 7:20 am)
Low25 °F (Apr 19, 4:50 am)29% (Apr 22, 6:50 pm)29.50 "Hg (Apr 15, 1:50 pm)
Average43 °F75%29.98 "Hg
* Reported Apr 9 4:20 am — Apr 24 4:20 am, Roskilde, Weather by CustomWeather, © 2017

Note: Actual official high and low records may vary slightly from our data, if they occured in-between our weather recording intervals... More about our weather records

Advertising

Roskilde Weather History for the Previous 24 Hours

Scroll right to see more
 ConditionsComfort  
Time TempWeatherWind HumidityBarometerVisibility
4:20 am
Mon, Apr 24
39 °FSprinkles. Overcast.9 mph93%29.89 "HgN/A
3:50 am39 °FSprinkles. Passing clouds.8 mph93%29.92 "HgN/A
3:20 am37 °FSprinkles. Passing clouds.9 mph93%29.92 "HgN/A
2:50 am37 °FPassing clouds.8 mph87%29.95 "HgN/A
2:20 am36 °FPartly cloudy.6 mph87%29.95 "HgN/A
1:50 am36 °FChilly.7 mph81%29.98 "HgN/A
1:30 am36 °FPartly cloudy.8 mph81%29.98 "HgN/A
12:20 am37 °FChilly.7 mph75%29.98 "HgN/A
11:20 pm
Sun, Apr 23
36 °FChilly.6 mph81%29.98 "HgN/A
10:50 pm37 °FChilly.9 mph75%29.98 "HgN/A
10:20 pm39 °FChilly.10 mph70%29.98 "HgN/A
8:20 pm41 °FQuite cool.13 mph53%29.98 "HgN/A
7:50 pm45 °FQuite cool.18 mph46%29.98 "HgN/A
7:20 pm45 °FPassing clouds.20 mph49%29.98 "HgN/A
6:50 pm46 °FPassing clouds.18 mph43%29.95 "HgN/A
6:20 pm45 °FScattered clouds.20 mph46%29.95 "HgN/A
5:50 pm45 °FPassing clouds.20 mph42%29.95 "HgN/A
5:20 pm46 °FPassing clouds.20 mph43%29.95 "HgN/A
4:50 pm46 °FPartly sunny.20 mph43%29.95 "HgN/A
4:20 pm48 °FPassing clouds.20 mph43%29.95 "HgN/A
3:50 pm46 °FPartly sunny.23 mph46%29.95 "HgN/A
3:20 pm48 °FScattered clouds.21 mph46%29.95 "HgN/A
2:50 pm46 °FPartly sunny.18 mph46%29.95 "HgN/A
2:20 pm45 °FBroken clouds.17 mph49%29.95 "HgN/A
1:20 pm45 °FBroken clouds.17 mph57%29.95 "HgN/A
12:50 pm45 °FBroken clouds.17 mph57%29.95 "HgN/A
12:21 pm43 °FPartly sunny.18 mph61%29.95 "HgN/A
11:50 am43 °FPartly sunny.16 mph61%29.95 "Hg5 mi
11:20 am43 °FScattered clouds.20 mph66%29.95 "Hg5 mi
10:20 am43 °FPartly sunny.20 mph66%29.95 "HgN/A
9:50 am45 °FPartly sunny.17 mph71%29.95 "HgN/A
9:20 am43 °FPartly sunny.20 mph71%29.95 "HgN/A
8:50 am43 °FPartly sunny.16 mph76%29.92 "HgN/A
8:20 am43 °FBroken clouds.16 mph76%29.92 "HgN/A
7:50 am41 °FPartly sunny.15 mph81%29.92 "HgN/A
7:20 am41 °FPartly sunny.15 mph87%29.92 "HgN/A
6:50 am41 °FPartly sunny.14 mph87%29.92 "HgN/A
6:20 am41 °FMostly cloudy.15 mph81%29.92 "HgN/A
5:50 am39 °FPartly sunny.13 mph93%29.92 "HgN/A
5:20 am39 °FPartly cloudy.14 mph93%29.92 "HgN/A
Weather by CustomWeather, © 2017

See weather overviewHow to use our weather pages